Время (UTC), дата Ветер
(°,м/с) 
Видим.   Явления Облачность Т
(°С)
Тd
(°С)
f(%) Тe
(°С)
Pmin
(гПа)
dP
(гПа)
Po
(мм)
O2
(г/м3)
Тmin Tmax R s Состояние
почвы
00 16.07.14 310 (СЗ) 10 км    ясно 
+20 +15.3 74 +29  1017.7  0.2  753  279           
03 16.07.14 270 (З) 20000 м    6/0 средняя, верхняя 
[Ac cast|Ci sp]
+21.8 +15.5 67 +31  1017.9  0.3  753  278  +19.7        сухая 
06 16.07.14 290 (З) 20000 м    ясно 
+27 +16 51 +37  1017.2  -0.4  753  273           
09 16.07.14 260 (З) 20000 м    3/3 1000 м средняя, верхняя 
[Cu med, cong|Ac lent|Ci fib]
+30.1 +13 35 +35  1016.6  -0.5  752  271           
12 16.07.14 300 (СЗ) 20000 м    4/1 1000 м средняя, верхняя 
[Cu hum|Ac lent|Ci fib]
+30.8 +11.3 30 +34  1015.3  -1.3  751  270           
15 16.07.14 280 (З) 20000 м    8/1 1000 м верхняя 
[Cu hum|Ci fib]
+29.7 +10.6 31 +32  1014.3  -1  751  271    +31.3       
18 16.07.14 260 (З) 10 км    3/0 верхняя 
[Ci fib]
+25.9 +12.1 42 +30  1014.3  0.1  751  274           
21 16.07.14 260 (З) 10 км    ясно 
+23.5 +13.7 54 +30  1014.1  -0.3  750  276           
00 17.07.14 300 (СЗ) 10 км    1/0 средняя 
[Ac cast]
+21.8 +14.7 64 +30  1013.9  -0.3  750  277           
03 17.07.14 300 (СЗ) 20000 м    ясно 
+21.7 +14.1 62 +29  1014.3  0.4  750  277  +21.1        сухая 
06 17.07.14 280 (З) 20000 м    3/1 1000 м верхняя 
[Cu hum|Ci fib]
+25 +15.1 54 +34  1014  -0.2  750  274           
09 17.07.14 280 (З) 20000 м    5/5 1000 м 
[Cu med, cong]
+27.7 +13.3 41 +34  1013  -0.9  750  272           
12 17.07.14 030 (СВ) 10 км  гроза, ливневой дождь  10/8 <0100 м кучево-дожд., средняя 
[Cb cap|Ac As]
+18.8 +17.8 94 +34  1015.3  1.9  751  279           
15 17.07.14 070 (В) 20000 м  {гроза, ливн. осадки}  8/6 600 м кучево-дожд., средняя, верхняя 
[Cb calv|Ac cast|Ci fib]
+19.2 +15.6 80 +30  1015.4  0.2  751  279    +28  16     
18 17.07.14 060 (СВ) 10 км  {гроза, ливн. осадки}  8/0 средняя 
[Ac trans]
+16.5 +9.6 64 +18  1017.1  1.5  752  284           
21 17.07.14 090 (В) 10 км    ясно 
+14.8 +8.8 67 +15  1017.7  0.5  753  286           
00 18.07.14 080 (В) 10 км    6/0 верхняя 
[Ci fib]
+12.9 +7.9 72 +13  1018.5  0.7  753  288           
03 18.07.14 080 (В) 10 км    9/0 средняя, верхняя 
[Ac trans|Cs]
+13.2 +8.1 71 +14  1019.4  0.9  754  288  +12.6        влажная 
06 18.07.14 080 (В) 20000 м    10/0 средняя 
[Ac As]
+16.8 +7.3 53 +18  1019.6  0.4  754  285           
09 18.07.14 040 (СВ) 20000 м    9/0 средняя, верхняя 
[Ac lent|Ci fib]
+18.7 +5.2 41 +20  1019.2  -0.3  754  284           
12 18.07.14 070 (В) 20000 м    6/0 средняя, верхняя 
[Ac lent|Ci fib]
+18.9 +3.4 36 +19  1018.5  -0.7  753  283           
15 18.07.14 050 (СВ) 20000 м    1/1 1000 м 
[Cu hum]
+19.6 +3.3 34 +21  1017.6  -0.9  753  282    +20.4       
18 18.07.14 070 (В) 10 км    3/0 верхняя 
[Ci fib]
+16 +5.5 50 +17  1018  0.2  753  286           
21 18.07.14 340 (С) н/о    н/о 
+13.7 +5.9 59 +15  1017.9  -0.2  753  288           
00 19.07.14 300 (СЗ) 10 км    3/0 средняя 
[Ac As]
+12.7 +6.7 67 +14  1016.5  -1.4  752  288           
03 19.07.14 270 (З) 10 км    8/4 1000 м средняя, верхняя 
[Sc|Ac trans|Ci fib]
+13.1 +7.1 67 +14  1015.7  -0.8  751  288  +12.4        сухая 
06 19.07.14 300 (СЗ) 10 км    9/8 600 м средняя 
[Sc|Ac lent]
+17.5 +7.9 53 +18  1013  -2.5  749  282           
09 19.07.14 320 (СЗ) 4-11{11}  20000 м    8/5 1000 м средняя 
[Cu Sc|Ac cast]
+21.5 +2.6 29 +22  1010.6  -2.2  748  279           
12 19.07.14 010 (С) 4{13}  20000 м    8/4 1000 м средняя, верхняя 
[Cu Sc|Ac cast|Ci fib]
+18.7 +4.1 38 +19  1011.2  0.5  748  281           
15 19.07.14 020 (С) 2{12}  20000 м    8/4 1000 м средняя 
[Sc|Ac cast]
+15 +5.2 52 +16  1012.6  1.2  749  285    +21.7       
18 19.07.14 350 (С) 10 км    3/0 верхняя 
[Ci fib]
+12.3 +5.2 62 +13  1013.2  0.4  749  288           
21 19.07.14 340 (С) 10 км    1/0 верхняя 
[Ci fib]
+10.5 +6.6 77 +12  1013.3  749  290           
00 20.07.14 320 (СЗ) 10 км    5/0 средняя, верхняя 
[Ac lent|Ci fib]
+9.8 +6.8 82 +10  1012.4  -0.9  749  290           
03 20.07.14 310 (СЗ) 20000 м    10/0 средняя 
[Ac und]
+12.1 +6.5 69 +12  1011.5  -0.8  748  287  +9.8        сухая 
06 20.07.14 330 (СЗ) 20000 м    3/3 1000 м верхняя 
[Cu hum|Ci fib]
+17.6 +7.1 50 +18  1009.9  -1.3  747  282           
09 20.07.14 310 (СЗ) 4{10}  20000 м    9/8 1300 м средняя 
[Cu med, cong|Ac lent]
+19.6 +5.2 39 +20  1007.5  -2.2  745  279           
12 20.07.14 350 (С) 2{12}  20000 м  {ливн. осадки}  10/10 840 м 
[Sc]
+19.4 +5.8 41 +20  1007.1  0.4  745  279           
15 20.07.14 050 (СВ) 1{11}  20000 м  {ливн. осадки}  9/8 1170 м кучево-дожд., средняя 
[Cb calv|Ac cast]
+16.5 +7.9 57 +18  1008.6  1.3  746  282    +21.2  0.3     
18 20.07.14 340 (С) 10 км  {ливн. осадки}  1/0 средняя 
[Ac lent]
+14.3 +8 66 +15  1009.4  0.7  746  284           
21 20.07.14 330 (СЗ) 10 км    ясно 
+11.2 +7.5 78 +11  1010.2  0.6  747  288           
00 21.07.14 330 (СЗ) 10 км    ясно 
+9 +6.8 86 +10  1011.1  0.8  748  290           
03 21.07.14 340 (С) 10 км    ясно 
+9.9 +7 82 +10  1012.2  1.1  748  290  +8.4        влажная 
06 21.07.14 360 (С) 20000 м    6/6 840 м 
[Cu med, cong]
+13.2 +6.8 65 +13  1012.3  0.2  749  287           
09 21.07.14 350 (С) 20000 м    9/6 1000 м средняя, верхняя 
[Cu Sc|Ac trans|Cs]
+16.1 +8 59 +17  1012.7  0.6  749  284           
12 21.07.14 340 (С) 20000 м    10/1 1000 м средняя 
[Cu hum|Ac As]
+17 +7.3 53 +17  1012.9  0.2  749  283           
15 21.07.14 340 (С) 20000 м    10/0 средняя 
[Ac As]
+16.8 +7.4 54 +18  1013.2  0.3  749  283    +17.7       
18 21.07.14 310 (СЗ) 10 км    8/0 средняя 
[Ac As]
+15.6 +7.8 60 +17  1013.2  0.1  749  284           
21 21.07.14 330 (СЗ) н/о    н/о 
+14.2 +8.5 69 +15  1012.5  -0.8  749  285           
00 22.07.14 310 (СЗ) 10 км    3/0 верхняя 
[Ci fib]
+13 +8 72 +13  1012  -0.5  748  286           
03 22.07.14 300 (СЗ) 20000 м    6/3 1000 м верхняя 
[Cu hum|Ci fib]
+14.2 +7.8 65 +15  1011.5  -0.5  748  285  +12.6        сухая 
06 22.07.14 320 (СЗ) 20000 м    9/0 верхняя 
[Cs]
+19 +8.6 51 +20  1010.7  -0.5  748  280           
09 22.07.14 320 (СЗ) 4-10  20000 м    8/8 1000 м 
[Cu med, cong]
+21.6 +5.9 36 +22  1009.5  -1.1  747  278           
12 22.07.14 310 (СЗ) 4{13}  20000 м    9/6 1000 м верхняя 
[Cu Sc|Cs]
+22.4 +4.9 32 +22  1009.3  -0.2  747  277           
15 22.07.14 330 (СЗ) 3{12}  20000 м    8/5 600 м кучево-дожд., средняя 
[Cb cap|Ac cast]
+21.4 +5.3 35 +21  1009.9  0.5  747  278    +23.1       
18 22.07.14 330 (СЗ) 10 км    8/0 средняя, верхняя 
[Ac As|Ci fib]
+19.3 +7.1 45 +21  1010.4  0.4  747  280           
21 22.07.14 310 (СЗ) н/о    н/о 
+17.2 +7.7 54 +19  1010.3  -0.2  747  282           
00 23.07.14 310 (СЗ) 10 км    3/0 верхняя 
[Ci fib]
+15.7 +7.9 60 +16  1010.4  747  283           
03 23.07.14 290 (З) 10 км    9/0 средняя, верхняя 
[Ac As|Ci fib]
+15.1 +8.7 66 +16  1010.4  747  284  +14.8        сухая 
06 23.07.14 300 (СЗ) 10 км    9/0 средняя 
[Ac cast]
+18.9 +9.4 54 +20  1010.2  747  280           
09 23.07.14 320 (СЗ) 20000 м    9/0 средняя, верхняя 
[Ac lent|Ci fib]
+23.5 +6.1 33 +24  1010  747  276           
12 23.07.14 310 (СЗ) 20000 м    9/0 верхняя 
[Ci fib]
+25.5 +5.2 27 +26  1009.8  0.1  747  275           
15 23.07.14 350 (С) 20000 м    9/0 верхняя 
[Ci fib]
+24.2 +4.8 28 +24  1010.1  0.3  747  276    +25.9       
18 23.07.14 300 (СЗ) 10 км    9/0 верхняя 
[Ci fib]
+20.5 +6.1 39 +21  1011.2  0.8  748  279           
21 23.07.14 340 (С) 10 км    8/0 верхняя 
[Ci sp]
+17.9 +7.3 50 +19  1011.7  0.4  748  282           
00 24.07.14 310 (СЗ) 10 км    6/0 верхняя 
[Ci fib]
+15.4 +8.2 62 +17  1012.1  0.3  749  284           
03 24.07.14 340 (С) 20000 м    3/0 верхняя 
[Ci fib]
+16.8 +8.8 59 +18  1012.5  0.5  749  283  +15.3        сухая 
06 24.07.14 330 (СЗ) 20000 м    3/0 верхняя 
[Ci fib]
+22.2 +8.8 42 +22  1012.2  0.1  749  278           
09 24.07.14 270 (З) 20000 м    5/5 600 м 
[Cu med, cong]
+25 +6.8 31 +25  1011.6  -0.5  749  275           
12 24.07.14 300 (СЗ) 20000 м  {ливн. осадки}  10/8 800 м кучево-дожд., средняя, верхняя 
[Cb cap|Ac lent|Ci fib]
+24.1 +6.9 33 +24  1010.7  -1  748  276           
15 24.07.14 350 (С) 20000 м    10/9 600 м средняя 
[Sc diur, vesp|Ac lent]
+22.9 +8.3 39 +23  1009.8  -0.9  747  276    +25.8  0.0     
18 24.07.14 030 (СВ) 4000 м  ливневой дождь  10/10 600 м кучево-дожд. 
[Cb cap]
+15.8 +14.3 91 +25  1011.3  1.2  748  282           
21 24.07.14 340 (С) 10 км  {ливн. осадки, дождь}  3/0 средняя 
[Ac cast]
+16.7 +14 84 +25  1010.4  -0.8  747  281           
00 25.07.14 050 (СВ) 10 км  {ливн. осадки, дождь}  1/0 средняя 
[Ac cast]
+13 +7.4 69 +14  1011.6  748  286           
03 25.07.14 050 (СВ) 10 км    ясно 
+12.5 +6 65 +13  1013.3  1.6  749  288  +11.6      влажная 
06 25.07.14 340 (С) 20000 м    6/0 верхняя 
[Cc]
+15 +3.5 46 +15  1014  0.8  750  286           
09 25.07.14 320 (СЗ) 20000 м    1/0 верхняя 
[Ci fib]
+18.2 +2.6 35 +19  1013.5  -0.3  750  283           
12 25.07.14 300 (СЗ) 20000 м    5/0 средняя, верхняя 
[Ac lent|Ci fib]
+20.1 +3.5 33 +20  1012.1  -1.3  749  280           
15 25.07.14 310 (СЗ) 20000 м    9/6 1000 м средняя 
[Sc diur, vesp|Ac lent]
+18.2 +6.9 48 +19  1011.5  -0.7  748  281    +20.4       
18 25.07.14 290 (З) 10 км    8/3 1000 м кучево-дожд., средняя, верхняя 
[Cb calv|Ac cuf|Ci fib]
+16.3 +9.4 64 +17  1010.7  -0.8  748  283           
21 25.07.14 270 (З) 1000 м  ливневой дождь{гроза}  8/6 700 м кучево-дожд., верхняя 
[Cb calv|Cs]
+15.6 +11.5 77 +19  1008.3  -2.4  746  282           
00 26.07.14 290 (З) 10 км  в посл. час ливневой дождь{гроза}  9/9 700 м кучево-дожд. 
[Cb calv]
+14.6 +13 90 +21  1006.9  -1.5  745  282           
03 26.07.14 330 (СЗ) 10 км  {ливн. осадки}  10/10 660 м кучево-дожд. 
[Cb calv]
+13.1 +10.9 87 +16  1008.3  1.4  746  285  +13      влажная 
06 26.07.14 350 (С) 20000 м  {ливн. осадки}  8/6 600 м кучево-дожд., средняя 
[Cb calv|Ac cuf]
+15.2 +9.1 67 +15  1009.8  1.5  747  283           
09 26.07.14 330 (СЗ) 20000 м    9/8 600 м кучево-дожд., средняя 
[Cb calv|Ac cuf]
+15.5 +8.6 63 +16  1011.4  1.6  748  284           
12 26.07.14 300 (СЗ) 20000 м    8/8 600 м кучево-дожд. 
[Cb calv]
+18.2 +7.8 51 +19  1010.8  -0.5  748  281           
15 26.07.14 320 (СЗ) 20000 м  {ливн. осадки}  8/3 600 м кучево-дожд., средняя, верхняя 
[Cb calv|Ac As|Ci fib]
+15.7 +9.6 67 +18  1012  1.1  748  283    +18.7     
18 26.07.14 310 (СЗ) 10 км  {ливн. осадки}  10/0 средняя 
[Ac und]
+14.5 +10.3 76 +17  1013  749  285           
21 26.07.14 330 (СЗ) 10 км    8/0 средняя 
[Ac lent]
+12.7 +8.8 77 +13  1013  749  287           
00 27.07.14 320 (СЗ) 10 км    8/3 1000 м средняя 
[Cu med, cong|Ac As]
+11.9 +8.3 79 +12  1014.8  0.8  750  288           
03 27.07.14 360 (С) 10 км    8/8 600 м 
[Sc diur, vesp]
+11.4 +7.6 77 +12  1016  1.2  751  289  +11.3    0.0    влажная 
06 27.07.14 330 (СЗ) 10 км    10/10 800 м 
[Sc]
+14.5 +7.6 63 +15  1016.5  0.6  752  286           
09 27.07.14 320 (СЗ) 10 км    9/9 1200 м 
[Sc]
+15 +6.6 57 +15  1017.4  0.9  752  286           
12 27.07.14 320 (СЗ) 10 км    8/8 1000 м 
[Cu Sc]
+17.5 +6.7 49 +18  1017.2  0.1  752  284           
15 27.07.14 320 (СЗ) 10 км    1/0 средняя 
[Ac cast]
+17.3 +7.2 51 +18  1017.5  0.3  753  284    +18       
18 27.07.14 050 (СВ) 10 км    1/0 верхняя 
[Ci fib]
+14.2 +7.7 65 +15  1018.6  0.9  753  287           
21 27.07.14 тихо ()   10 км    9/0 средняя 
[Ac und]
+11.1 +8 81 +11  1018.6  -0.2  753  290           
00 28.07.14 тихо ()   н/о    н/о 
+12.1 +8.6 79 +12  1018.6  0.1  753  289           
03 28.07.14 070 (В) 10 км    9/0 средняя 
[Ac As]
+13.8 +7.3 65 +15  1018.8  0.3  753  288  +11.1        сухая 
06 28.07.14 350 (С) 20000 м    8/1 1000 м средняя 
[Cu hum|Ac lent]
+17.3 +6 47 +18  1019.2  0.6  754  285           
09 28.07.14 340 (С) 20000 м    8/4 1000 м средняя 
[Sc|Ac lent]
+18.6 +7.8 49 +19  1019.1  0.1  754  283           
12 28.07.14 360 (С) 20000 м    8/4 1000 м средняя 
[Cu med, cong|Ac lent]
+19.9 +8.1 46 +21  1018.6  -0.4  753  282           
15 28.07.14 040 (СВ) 20000 м    ясно 
+18.7 +7.5 48 +20  1018.7  0.1  754  283    +21.3       
18 28.07.14 060 (СВ) 10 км    ясно 
+15 +7.5 61 +16  1020  754  287           
21 28.07.14 090 (В) 10 км    ясно 
+12.8 +7.2 69 +14  1020.4  0.3  755  289           
00 29.07.14 тихо ()   10 км    ясно 
+10.1 +7.2 82 +10  1020.7  0.2  755  292           
03 29.07.14 160 (Ю) 20000 м    ясно 
+13.9 +8.4 69 +15  1020.8  0.3  755  288  +9.5        сухая 
06 29.07.14 310 (СЗ) 20000 м    3/0 верхняя 
[Ci fib]
+18.4 +8.3 52 +20  1020.1  -0.4  755  283           
09 29.07.14 180 (Ю) 20000 м    8/0 верхняя 
[Ci fib]
+21 +8.7 45 +21  1019.1  -0.9  754  281           
12 29.07.14 140 (ЮВ) 20000 м    8/0 средняя, верхняя 
[Ac lent|Ci fib]
+22.7 +8.5 40 +23  1017.9  -1.2  753  279           
15 29.07.14 150 (ЮВ) 20000 м    1/0 верхняя 
[Ci fib]
+22.5 +8.6 41 +23  1016.2  -1.6  752  278    +23.6       
18 29.07.14 150 (ЮВ) 10 км    3/0 верхняя 
[Ci fib]
+17.8 +10.1 61 +20  1016.3  0.1  752  283           
21 29.07.14 150 (ЮВ) 10 км    ясно 
+16.7 +12 74 +22  1015.4  -0.9  751  283           
00 30.07.14 130 (ЮВ) 10 км    ясно 
+16.5 +10.9 69 +20  1014.8  -0.6  751  283           
03 30.07.14 180 (Ю) 20000 м    3/0 верхняя 
[Cc]
+18.8 +12.2 65 +24  1014.5  -0.2  750  281  +15.9        сухая 
06 30.07.14 240 (ЮЗ) 20000 м    3/0 верхняя 
[Ci fib]
+25.4 +13.8 49 +32  1013.5  -0.7  750  274           
09 30.07.14 270 (З) 20000 м    6/4 1000 м верхняя 
[Cu med, cong|Ci fib]
+30.7 +10.8 29 +33  1012.3  -0.9  749  269           
12 30.07.14 280 (З) 20000 м    9/0 средняя, верхняя 
[Ac lent|Ci fib]
+29.3 +11.1 32 +32  1012  -0.4  749  271           
15 30.07.14 290 (З) 20000 м    10/0 средняя, верхняя 
[Ac lent|Cs]
+27 +12.5 41 +32  1012.3  -0.4  749  272    +31  0.3     
18 30.07.14 250 (З) 1{11}  10 км  {ливн. осадки}  10/0 средняя 
[Ac cuf]
+22.3 +13.9 59 +29  1012.6  0.1  749  276           
21 30.07.14 280 (З) 10 км    8/0 средняя, верхняя 
[Ac lent|Ci fib]
+21.8 +14.4 63 +29  1012.9  0.3  749  277           
00 31.07.14 290 (З) 10 км    1/0 верхняя 
[Ci fib]
+19.5 +16.1 81 +32  1013.3  0.3  750  278           
03 31.07.14 290 (З) 20000 м    3/0 верхняя 
[Ci fib]
+20.1 +16.9 82 +32  1014.1  0.8  750  278  +19.1        сухая 
06 31.07.14 270 (З) 20000 м    8/3 1000 м верхняя 
[Cu med, cong|Ci fib]
+23.3 +17.4 69 +36  1014.3  0.3  750  275           
09 31.07.14 010 (С) 20000 м    10/4 1000 м верхняя 
[Cu med, cong|Cs]
+25.4 +15.9 56 +36  1014.3  0.1  751  273           
12 31.07.14 360 (С) 20000 м    9/4 1000 м средняя, верхняя 
[Cu Sc|Ac As|Ci fib]
+26.3 +15.5 51 +36  1014.7  0.4  751  273           
15 31.07.14 350 (С) 20000 м    8/0 средняя 
[Ac As]
+23.7 +12.9 51 +29  1015.4  0.6  751  276    +26.3       
18 31.07.14 010 (С) 10 км    6/0 средняя, верхняя 
[Ac lent|Ci fib]
+21.1 +13.6 62 +27  1016.5  0.9  752  279           
21 31.07.14 тихо ()   10 км    8/0 средняя 
[Ac As]
+19.6 +13.9 70 +26  1017.2  0.7  752  280           
00 01.08.14 080 (В) 10 км    ясно 
+17.1 +13 77 +23  1018.2  0.8  753  283           
03 01.08.14 080 (В) 20000 м    4/0 средняя 
[Ac cuf]
+16.7 +12.4 76 +22  1019.1  0.9  754  284  +16        сухая 
Время (UTC), дата Ветер
(°,м/с) 
Видим.   Явления Облачность Т
(°С)
Тd
(°С)
f(%) Тe
(°С)
Pmin
(гПа)
dP
(гПа)
Po
(мм)
O2
(г/м3)
Тmin Tmax R s Состояние
почвы